Theta_e
369 370 370 369 368 371 367 368 367 366 363 358 356 355 351 349 349 351 349 347 345 347 346 343 342 347 337 335 336 339 336 335 327 330 336 337 346 344 341 343 340 337 337
367 371 370 371 368 367 367 368 368 364 363 359 357 355 350 346 343 342 345 343 344 343 345 346 343 338 348 347 338 344 338 340 330 334 335 333 340 343 345 345 338 336 333
364 365 368 369 368 366 368 369 367 364 356 356 356 351 349 344 342 348 348 345 344 344 344 344 343 345 344 340 346 340 336 338 342 330 330 333 334 335 336 340 342 339 336
358 360 366 369 369 367 369 369 368 363 358 356 355 353 349 347 345 346 346 344 344 344 343 343 342 343 342 345 344 344 342 337 336 331 331 330 331 336 331 330 328 332 326
362 363 366 371 371 371 368 368 368 361 359 356 354 352 349 342 339 343 344 343 345 343 342 345 346 345 340 339 337 340 344 337 331 328 328 327 327 331 328 329 327 328 330
366 365 369 372 370 370 368 367 365 361 355 354 352 348 345 334 329 332 340 341 344 343 344 343 345 342 340 334 332 331 334 335 336 330 327 326 332 331 331 330 327 323 320
367 367 370 372 370 369 367 365 362 357 353 350 348 346 338 341 326 329 334 341 343 344 346 345 342 339 339 340 333 329 329 328 327 331 330 331 330 332 333 330 328 325 321
367 368 370 372 370 367 362 361 358 354 353 349 347 344 344 346 326 325 330 340 343 343 343 347 346 345 344 341 337 338 337 337 337 332 334 333 333 332 328 326 326 325 324
363 367 368 368 368 365 359 357 354 352 350 347 345 344 343 349 324 323 329 339 339 343 346 347 345 342 333 327 334 335 334 334 330 325 324 321 319 320 321 321 319 317 316
364 364 368 369 366 360 358 357 355 351 348 346 344 344 336 347 324 319 326 339 339 337 346 348 329 334 321 321 328 331 330 331 330 330 329 325 323 325 321 324 322 318 316
359 360 363 363 364 361 355 356 351 345 345 344 344 343 343 343 342 318 317 339 335 336 342 341 338 318 314 313 314 329 327 324 327 325 323 323 325 323 322 326 330 322 316
364 363 363 363 358 356 355 353 346 346 342 342 340 340 348 350 328 317 315 316 328 336 334 334 333 313 312 310 313 313 310 311 321 320 320 319 317 318 319 321 327 324 322
362 360 359 358 355 355 351 344 339 343 340 338 339 345 344 348 346 315 314 314 316 327 329 314 314 310 308 309 312 313 309 319 319 320 318 316 316 317 324 322 325 327 326
357 352 350 347 348 348 343 342 340 340 340 343 342 341 343 345 340 337 333 322 318 320 316 321 319 317 315 314 318 316 319 321 320 316 314 316 316 314 312 312 310 310 310
349 345 344 342 344 338 328 334 343 329 326 341 341 341 337 334 332 323 321 323 324 321 328 329 325 324 323 323 323 325 321 321 317 317 315 313 312 311 309 310 309 310 309
347 345 344 341 341 341 336 328 301 302 299 300 303 318 322 313 303 298 299 300 303 307 324 323 321 322 324 322 320 319 320 318 316 316 314 312 309 308 307 307 308 308 309
346 345 341 338 340 339 337 335 332 315 299 297 298 300 305 303 298 297 296 297 299 304 319 319 319 324 326 323 320 318 315 316 318 313 311 310 308 307 306 306 307 307 307
344 327 340 339 337 336 334 333 331 329 326 324 303 306 297 297 296 296 296 300 314 310 317 318 320 323 321 318 317 316 315 314 312 310 308 308 307 306 305 306 306 307 306
340 338 339 337 336 331 333 331 330 329 329 327 317 309 302 296 296 296 297 318 320 319 319 318 318 317 316 316 315 314 313 311 307 306 307 307 306 306 305 306 306 302 304
336 327 330 334 332 331 330 328 328 328 326 324 322 322 316 310 315 316 316 319 319 317 317 316 316 316 315 314 314 312 309 307 307 307 306 306 306 306 305 305 305 305 306
332 330 327 331 331 330 329 328 327 327 327 323 323 320 310 319 320 319 319 320 318 318 318 317 316 316 315 313 310 307 306 306 307 306 305 305 306 305 306 305 305 305 305
332 329 329 328 328 328 327 327 327 325 324 324 318 313 304 321 321 321 320 320 319 320 319 319 316 314 313 310 308 305 305 305 306 305 304 305 305 306 305 305 305 305 305
329 326 327 328 328 323 327 327 326 325 324 322 319 319 321 322 321 321 321 319 319 319 319 318 316 313 312 309 306 305 305 305 305 305 304 304 305 305 305 305 304 304 305
328 328 325 326 326 326 326 325 326 316 324 322 322 322 323 322 321 321 323 321 321 319 317 317 314 311 310 307 305 304 305 306 305 304 305 304 305 304 305 305 304 305 305
327 326 323 324 324 324 322 323 323 322 322 323 322 322 321 318 318 320 321 320 319 319 317 316 314 311 308 306 305 304 292 289 297 288 302 304 305 306 304 304 303 304 304
322 323 322 322 322 323 323 320 321 321 320 320 321 320 320 320 319 319 320 318 316 317 317 315 313 311 308 306 304 290 284 287 293 285 296 301 304 304 302 303 303 303 303
Wind_Speed
18 18 17 16 17 15 13 13 11 9 10 9 11 11 11 11 7 7 8 7 6 7 8 7 6 5 6 7 7 4 3 5 8 8 4 9 6 7 9 8 9 9 11
19 18 18 17 17 17 16 15 14 13 12 12 13 12 12 15 18 14 11 6 9 10 10 7 7 7 7 6 7 8 6 7 9 10 9 9 9 9 7 9 8 7 8
20 20 18 18 18 18 18 16 15 15 15 16 15 15 17 14 11 12 11 11 11 10 8 7 8 8 6 7 7 9 8 6 5 9 11 9 7 8 11 8 6 10 8
22 20 18 19 18 17 16 17 17 17 17 17 18 18 16 13 12 13 13 12 12 10 8 9 9 10 8 8 8 9 9 8 8 9 11 7 8 9 8 8 9 8 8
19 19 18 17 16 15 16 16 15 17 16 17 18 17 16 14 12 13 13 12 11 12 11 11 10 10 8 6 7 9 7 7 10 10 9 9 10 6 11 10 10 9 8
17 17 16 16 16 16 14 15 15 15 15 16 16 16 17 12 9 9 11 11 11 11 11 8 8 9 11 10 9 11 7 8 10 9 10 12 11 10 9 8 9 11 12
14 16 15 16 17 16 15 15 15 15 15 15 16 15 14 12 7 9 10 10 10 11 11 10 10 9 7 11 11 10 10 12 13 9 11 11 12 9 10 11 11 11 12
15 14 15 14 15 14 14 14 14 14 16 14 15 14 12 9 7 12 12 13 10 10 11 12 12 11 8 9 10 10 10 10 9 9 11 12 11 8 9 11 12 13 13
16 14 14 15 15 15 16 17 15 15 14 13 14 14 13 11 11 10 11 11 11 12 12 11 9 7 6 5 7 8 10 11 9 11 5 4 7 12 13 10 11 12 10
16 15 14 14 14 15 15 13 11 11 14 12 11 14 14 12 9 13 13 10 11 13 12 9 8 7 8 7 5 7 10 11 9 9 7 9 14 16 20 15 12 10 11
16 15 14 13 12 12 11 11 13 10 9 10 9 11 12 10 9 15 15 11 11 8 4 3 5 12 11 9 6 7 7 6 6 8 10 12 10 9 9 6 10 9 12
13 14 13 12 10 9 12 10 8 7 9 9 9 10 8 7 7 7 11 13 5 4 3 6 3 11 7 7 7 4 2 4 7 10 11 9 9 9 9 8 9 11 12
12 11 12 10 8 7 8 8 7 8 8 9 8 6 6 5 6 10 7 5 6 3 2 8 12 5 7 6 6 6 5 6 9 9 8 8 8 8 8 11 11 10 11
13 10 7 10 10 10 6 6 6 7 8 6 5 6 6 6 6 6 6 4 5 5 8 9 8 3 0 1 7 7 7 8 6 8 9 8 9 9 9 10 10 10 11
13 12 11 9 7 8 7 4 5 5 3 3 3 3 3 4 5 7 5 6 6 4 8 6 7 9 9 7 6 4 7 8 6 6 8 8 9 9 9 9 10 11 11
13 11 9 9 9 10 10 8 14 11 6 9 4 3 7 10 13 14 11 9 9 8 3 6 9 7 3 4 7 7 5 4 6 6 7 9 9 9 9 9 10 10 10
11 13 10 10 10 9 7 7 7 7 12 12 11 12 13 12 12 12 10 10 8 3 6 8 9 2 2 3 5 5 6 5 4 6 8 8 8 8 8 9 9 9 10
9 8 8 8 8 8 7 7 6 6 6 6 11 9 11 10 8 8 8 5 4 5 7 8 5 1 3 4 5 6 5 5 6 6 7 8 7 8 8 9 9 9 10
9 8 8 7 6 5 5 4 5 8 6 10 7 5 6 8 7 5 4 7 6 4 3 3 4 4 5 3 4 4 5 6 6 6 7 7 7 8 8 8 9 9 10
6 7 2 8 7 6 4 5 5 7 9 7 8 8 8 6 6 7 6 7 5 3 2 3 3 3 4 3 4 4 5 6 6 5 5 6 6 8 8 9 9 10 10
7 6 5 6 7 7 6 5 4 5 8 10 8 11 15 10 9 8 8 6 4 3 2 3 3 2 3 3 4 5 6 5 3 4 5 6 6 7 8 8 9 10 10
8 10 9 5 5 5 5 4 4 6 5 5 8 7 17 9 7 5 5 4 4 3 3 1 3 3 3 3 4 5 5 4 3 3 5 6 7 7 8 8 9 9 9
3 6 2 2 4 4 4 4 4 3 2 9 9 9 9 6 8 5 4 4 3 3 2 2 2 3 3 3 4 3 4 4 3 3 5 6 7 7 8 8 8 8 9
2 3 6 4 5 2 2 3 2 3 2 6 7 7 7 5 7 4 0 3 3 3 4 3 4 4 2 3 3 4 5 2 4 5 7 7 7 7 8 8 8 10 8
4 5 5 4 3 6 4 7 7 5 2 2 5 3 5 7 8 3 5 1 4 4 6 4 4 5 5 5 6 4 7 9 4 6 6 8 7 9 7 8 8 10 8
3 4 5 5 5 4 3 5 3 5 3 2 2 5 5 4 5 7 8 5 4 8 7 5 5 4 5 6 6 11 7 5 1 3 6 7 7 6 6 9 9 8 8
Wind_Direction
200 198 199 197 198 200 213 200 201 207 184 181 185 186 180 161 179 180 223 288 243 227 256 266 256 274 273 287 310 336 265 261 282 291 340 312 330 301 283 264 256 259 271
201 199 197 195 197 199 206 202 190 199 190 193 184 189 176 190 186 173 188 222 235 234 240 244 253 246 218 246 267 279 284 301 291 290 283 282 274 285 269 274 274 276 277
199 198 198 197 198 199 198 200 191 195 185 189 185 191 196 196 197 175 173 194 226 245 237 237 246 249 231 267 293 289 287 275 239 258 285 295 300 303 288 265 267 280 282
195 201 197 197 200 200 197 200 192 194 190 192 188 194 197 193 212 183 173 199 218 232 229 238 241 253 251 239 244 257 258 266 281 273 261 291 289 280 274 302 295 291 275
195 195 196 192 196 198 201 198 199 192 199 198 192 195 195 201 212 194 182 196 209 223 234 240 228 240 279 282 270 274 296 263 266 283 294 286 281 315 304 317 299 305 310
190 195 188 184 190 197 197 206 194 196 206 204 205 198 194 211 198 205 192 199 206 207 228 231 250 243 235 229 234 250 250 264 272 278 286 290 299 295 307 299 291 298 298
198 187 187 182 185 189 193 196 200 203 199 205 210 207 208 216 171 193 199 217 218 215 219 233 247 252 244 259 225 217 231 226 232 263 276 282 299 305 298 294 297 304 293
188 192 182 182 180 184 191 196 190 202 206 198 210 211 212 214 193 212 196 219 223 239 237 235 239 254 257 264 269 250 251 256 226 228 246 259 259 293 305 293 291 281 269
182 189 181 182 186 186 195 194 197 203 205 215 191 215 219 220 203 209 191 218 224 233 240 241 243 260 263 196 252 258 263 267 263 221 233 277 262 250 251 276 277 285 293
177 179 178 183 189 193 198 198 195 202 208 210 214 215 225 233 192 185 196 225 226 230 213 222 223 246 147 225 228 243 263 273 287 298 242 250 244 246 239 235 248 272 283
169 170 172 183 186 189 183 191 189 201 201 208 203 221 229 225 223 178 197 227 256 261 249 217 189 175 175 186 222 260 279 327 289 282 271 262 269 277 274 223 223 265 287
157 160 164 167 183 176 185 186 168 177 196 214 197 220 221 238 248 165 189 216 289 241 248 269 215 153 174 178 200 134 148 287 274 269 268 291 294 303 304 329 321 288 275
149 141 153 154 168 144 169 140 153 189 205 211 207 211 229 218 172 131 163 203 220 218 2 86 109 162 154 194 215 217 236 262 261 273 295 302 308 316 308 278 273 283 274
122 116 119 127 136 138 144 152 168 193 202 214 211 220 223 204 158 151 175 199 215 184 151 156 139 162 206 88 151 204 242 259 308 316 295 292 304 298 303 304 306 306 296
132 136 136 134 126 104 69 35 131 65 346 217 168 248 221 153 151 145 178 189 193 202 211 155 200 213 216 206 220 220 210 264 282 296 301 310 301 305 306 311 309 294 301
136 140 134 138 153 147 141 119 55 68 57 57 67 95 76 90 104 108 110 97 76 44 210 258 267 264 143 193 198 214 227 253 262 284 314 297 306 307 308 310 297 310 310
153 133 146 156 165 166 158 153 152 92 71 58 57 69 87 126 117 110 105 93 65 68 241 260 265 301 163 206 253 291 297 297 13 287 280 301 298 300 302 306 313 314 324
107 115 156 149 148 150 147 165 169 154 174 132 50 70 80 98 107 118 125 147 173 208 250 267 293 261 273 290 298 293 298 312 302 301 307 295 297 304 305 311 317 327 326
157 157 156 147 147 132 145 177 210 154 168 126 126 130 97 74 83 106 156 257 270 289 269 262 280 303 307 296 289 297 310 297 316 314 287 294 309 308 309 320 316 317 312
114 63 145 149 135 155 165 198 198 126 130 142 162 171 155 159 183 191 208 229 258 266 349 307 313 319 316 310 301 297 283 268 264 268 300 313 309 312 318 323 323 325 333
149 143 318 162 175 162 177 187 189 189 167 164 191 162 162 198 208 192 198 186 234 248 186 278 318 268 257 255 275 279 268 266 285 294 313 320 321 313 327 325 322 331 342
169 159 199 189 148 151 185 185 187 224 206 118 109 132 156 206 257 161 208 209 207 198 305 238 281 259 268 302 286 279 270 277 294 326 321 318 321 318 339 322 330 337 342
262 143 125 142 80 90 171 243 231 233 49 120 135 152 187 211 240 185 189 221 206 218 214 249 257 279 223 259 270 266 271 305 0 338 316 321 321 350 317 330 335 343 346
285 37 73 40 40 334 38 61 218 158 251 125 148 178 208 214 234 216 4 142 178 195 236 214 262 248 199 249 245 234 230 27 0 324 354 313 317 344 320 327 351 328 349
63 48 55 68 132 269 166 228 168 198 280 79 188 193 182 208 220 180 179 203 204 183 221 215 253 205 205 235 275 112 89 67 6 331 294 313 314 308 342 324 357 319 1
145 195 184 174 207 219 248 275 186 165 192 292 271 152 141 170 200 186 185 194 222 225 211 207 217 226 214 204 226 104 109 96 51 345 305 291 304 332 10 319 354 327 353